Wind_Speed
23 23 23 18 14 14 14 14 16 15 10 8 11 14 16 18 19 19 19 20 20 20 20 20 20 20 19 19 19 19 19 19 20 20 20 20 20 19 18 16 15 16 16 16 15 16 16 17 18 20 20 20 22 23 24 23 23 23 23 23 23 24 25
19 21 20 16 13 13 13 14 14 13 10 7 7 9 11 13 15 17 19 20 21 21 21 20 20 19 19 19 19 19 19 20 21 21 21 21 20 19 18 17 16 16 15 14 15 15 17 19 19 20 22 22 23 25 26 26 26 26 26 26 26 26 26
18 19 17 15 15 13 14 14 13 11 9 6 5 6 8 9 11 14 16 18 19 19 19 19 19 19 19 19 19 20 20 21 22 21 20 20 20 18 17 16 16 15 14 14 14 16 18 19 19 20 22 23 24 25 25 26 26 27 28 29 30 30 29
16 15 15 16 18 18 18 15 13 10 7 5 4 5 6 8 9 10 12 13 15 16 17 18 19 19 19 19 19 20 20 21 20 20 19 18 17 16 15 15 14 14 14 15 15 17 19 19 20 21 22 24 25 25 24 24 25 26 28 29 30 31 32
19 16 15 17 20 22 21 15 11 9 6 5 5 6 7 8 9 8 8 10 11 12 14 16 17 17 17 17 17 18 18 18 18 17 16 14 14 13 13 13 13 13 14 15 15 17 18 19 20 21 22 24 24 24 24 24 25 25 27 28 29 30 31
24 19 18 19 22 25 22 17 12 10 9 8 8 9 10 10 11 10 9 10 10 11 12 13 14 15 15 16 15 15 16 15 15 14 13 13 12 12 11 11 12 12 12 13 14 15 17 18 19 20 23 24 24 24 24 25 25 25 27 28 29 30 30
31 22 18 21 24 26 24 19 17 14 13 13 12 12 13 13 13 12 11 10 11 11 11 11 12 13 14 14 14 13 14 14 14 14 13 12 11 11 11 12 14 14 13 12 12 14 16 18 18 19 23 24 24 25 25 26 26 27 28 29 29 30 29
37 28 20 22 25 28 26 22 20 19 17 16 16 15 15 16 16 15 13 12 12 12 11 11 12 12 13 14 13 13 13 13 13 13 12 11 11 11 12 13 14 14 13 12 13 15 17 19 20 21 23 25 25 25 25 27 29 29 30 31 31 32 32
36 29 22 25 26 29 29 25 24 23 20 19 18 17 16 17 18 17 15 13 14 13 12 12 12 13 14 14 13 13 12 12 13 12 12 11 12 13 14 14 13 13 13 12 13 15 17 19 21 22 23 25 26 27 26 27 30 31 31 32 33 34 35
30 28 27 29 27 26 26 25 27 25 20 19 19 18 17 18 19 19 18 15 15 15 15 14 13 13 14 14 13 12 12 11 12 12 12 12 14 15 15 14 13 13 14 14 14 16 19 20 22 24 25 26 27 29 30 30 32 34 33 33 34 34 35
30 29 33 34 29 26 26 26 26 24 19 18 18 17 16 17 19 20 19 17 17 17 17 16 15 14 15 15 13 11 11 11 11 12 12 13 14 15 14 13 14 15 16 17 17 18 20 22 24 26 27 28 28 30 32 33 34 36 37 37 36 35 35
31 33 36 35 30 29 29 27 26 25 22 20 18 17 16 16 17 19 20 20 19 18 18 18 16 14 14 15 13 11 12 12 12 12 13 13 13 13 13 13 14 15 17 19 20 20 21 24 26 27 29 30 31 32 34 35 35 36 39 40 39 38 37
35 36 36 33 29 30 31 30 28 25 24 23 21 20 19 18 18 19 21 22 21 19 19 19 18 15 14 14 13 11 12 13 13 12 12 12 11 12 12 13 14 15 17 19 21 22 23 25 27 29 31 33 34 35 36 36 36 37 39 41 41 40 39
39 36 34 30 28 31 32 31 30 27 26 25 24 23 22 21 20 20 21 23 23 21 19 19 19 16 13 14 14 12 13 15 14 13 12 11 11 12 12 13 14 14 15 18 21 24 25 26 28 31 33 35 37 38 38 38 38 38 39 41 42 40 39
39 37 36 33 32 32 32 33 33 31 29 28 28 27 25 23 23 22 22 24 23 21 20 18 19 18 14 14 15 13 14 16 14 13 13 11 11 11 11 12 13 14 15 18 21 24 27 27 29 31 34 36 38 39 40 40 39 39 40 42 43 42 40
34 36 39 39 37 36 35 37 37 34 32 31 31 31 27 24 24 23 23 25 23 21 21 19 19 19 16 15 16 16 16 17 15 14 13 11 10 10 12 14 16 18 20 22 24 26 28 30 31 32 35 37 39 41 42 41 39 39 41 42 43 43 42
34 36 40 40 39 40 40 40 40 38 37 35 35 33 29 25 24 24 25 26 24 22 22 20 19 20 18 16 18 18 18 17 16 15 13 12 12 13 16 19 22 24 26 27 28 30 32 33 34 34 36 39 42 44 44 42 41 40 42 43 43 44 42
37 39 41 38 37 40 42 43 43 42 42 40 38 35 30 26 26 26 26 27 25 24 24 22 20 20 19 18 18 19 18 17 17 15 15 16 17 18 20 22 25 28 29 30 31 33 35 37 37 38 38 40 43 45 45 44 42 42 45 45 45 45 42
36 40 42 39 36 38 41 44 47 46 45 43 39 34 30 28 27 27 27 27 26 25 25 23 20 20 20 19 18 18 17 18 18 17 17 19 20 21 22 24 27 29 31 33 34 35 37 37 38 40 41 41 43 45 46 44 43 47 49 47 47 46 43
35 40 43 41 39 40 40 42 46 48 46 43 39 35 32 31 29 28 28 28 27 26 26 23 20 19 20 19 18 17 17 19 19 19 20 21 22 23 25 26 28 31 33 35 36 38 38 38 39 41 43 44 45 46 47 46 46 51 52 50 49 46 41
41 42 42 41 39 40 41 40 41 42 44 43 40 37 35 33 31 30 29 29 28 27 25 22 18 17 18 19 18 18 19 20 21 22 22 23 24 25 26 28 30 32 34 36 38 41 41 42 44 45 46 47 47 47 48 48 49 53 54 52 50 43 38
53 53 52 51 48 46 45 43 38 36 40 43 42 40 38 36 34 32 30 30 29 27 25 22 18 18 19 19 19 19 20 22 23 24 24 25 26 27 28 30 31 33 36 38 40 42 43 44 47 48 49 50 50 50 51 49 50 53 53 49 44 39 36
58 59 59 59 57 53 50 47 41 37 40 43 43 42 41 40 37 34 32 32 30 28 26 24 21 20 20 21 21 21 23 25 26 27 28 29 29 30 31 32 33 35 37 39 41 44 46 47 48 50 52 53 52 53 52 50 50 53 50 44 39 37 37
57 57 58 56 53 51 51 50 47 43 42 43 44 44 43 43 40 36 34 33 32 29 27 26 24 22 23 24 24 25 27 29 30 31 33 33 33 33 34 34 35 36 38 40 43 46 48 49 50 51 52 52 52 52 52 51 52 51 46 39 36 37 38
50 53 55 53 48 47 50 52 51 48 46 46 47 46 46 46 44 40 36 34 33 31 29 28 27 25 26 28 29 29 31 32 34 36 38 38 39 39 38 36 37 38 39 42 45 48 49 49 50 52 51 51 52 52 51 51 50 47 43 39 38 38 38
40 48 51 48 42 43 50 53 51 50 49 48 48 48 48 48 47 43 38 36 35 33 31 30 29 28 30 31 32 34 35 37 39 41 42 43 44 44 41 39 39 40 41 43 46 48 49 49 50 51 51 51 52 50 48 47 45 43 42 42 41 40 40
37 41 43 40 38 43 50 51 48 48 49 50 51 52 50 50 49 45 41 39 37 34 33 32 31 32 33 34 37 39 40 42 43 45 47 48 47 46 43 41 42 43 44 45 47 48 49 50 50 51 51 52 51 49 46 43 41 41 42 43 42 41 41
38 38 37 38 41 47 48 45 42 44 48 50 53 55 54 52 51 48 43 41 38 36 35 34 34 34 36 39 42 42 42 44 46 47 49 50 48 47 46 44 44 44 45 46 47 48 49 49 50 51 52 51 51 48 45 42 41 42 43 42 41 40 41
39 40 39 40 44 46 45 42 41 44 47 50 53 56 55 54 52 48 44 42 40 38 37 36 36 37 38 41 43 42 42 45 47 48 50 51 50 50 49 46 43 43 46 48 48 48 48 48 50 52 52 51 50 48 44 42 42 43 43 43 43 42 41
37 42 41 39 41 45 44 43 44 47 49 50 53 55 56 54 51 48 45 43 41 39 38 38 39 40 40 41 42 42 44 46 48 50 52 54 53 53 53 50 44 43 46 49 48 48 48 48 50 51 51 51 51 48 46 44 45 45 44 43 43 40 38
34 42 44 40 42 47 49 48 48 50 51 53 55 56 55 52 50 48 46 43 41 41 41 42 42 42 42 43 44 45 47 48 49 52 54 56 56 57 57 52 45 43 46 48 48 47 48 50 51 51 51 51 51 49 48 47 47 47 44 42 41 39 36
36 42 47 46 47 52 54 53 52 52 54 55 56 55 53 51 49 47 45 44 43 43 44 44 44 44 45 46 47 48 49 50 52 54 56 58 58 57 53 46 41 42 45 47 47 48 49 51 52 52 52 52 51 49 48 48 48 47 44 42 41 38 37
39 44 48 52 55 56 54 51 49 50 53 54 55 54 52 49 46 45 45 46 45 45 44 45 45 46 48 48 48 49 50 52 54 55 56 56 53 47 42 40 40 43 45 46 47 48 50 51 52 52 52 52 50 49 48 47 47 46 43 41 39 39 40
42 44 46 50 53 53 51 47 45 46 49 51 52 51 49 46 46 46 47 47 46 45 45 45 47 48 48 49 49 51 52 53 52 49 47 45 43 40 40 41 42 44 45 46 48 49 50 51 51 51 52 51 49 48 47 47 46 44 42 40 40 42 43
41 41 43 46 48 48 49 46 42 40 41 43 43 44 45 45 46 46 46 46 46 46 47 47 47 48 49 50 50 50 49 48 46 43 40 40 41 42 43 43 43 44 46 48 49 50 50 51 51 51 51 50 49 47 46 45 44 43 42 42 42 42 41
41 39 41 44 45 45 45 42 36 34 36 38 39 41 44 45 46 46 46 47 48 48 48 48 47 48 49 48 46 44 43 43 43 42 42 43 44 45 44 44 45 46 48 49 50 50 50 50 50 50 50 48 47 46 45 45 44 44 43 43 42 41 41
43 40 37 36 34 34 35 34 32 33 36 38 41 43 43 45 46 47 48 49 49 49 48 47 47 48 47 44 41 41 42 43 44 44 45 45 46 45 45 46 47 48 49 50 49 49 49 50 50 49 47 46 45 44 44 45 45 45 44 42 41 41 43
31 31 30 28 26 25 27 30 33 35 37 38 40 42 43 44 46 47 48 49 48 48 48 48 48 48 46 44 43 44 45 45 47 48 48 47 46 47 48 48 49 50 50 49 48 48 49 48 48 46 45 44 44 44 44 45 45 45 44 42 40 42 44
Wind_Direction
238 236 236 236 241 249 252 249 240 232 231 246 257 257 258 258 256 255 252 250 249 247 248 250 251 253 253 255 258 261 264 266 271 276 282 288 290 289 290 291 292 295 300 304 305 307 311 314 315 316 318 320 320 319 318 316 314 312 309 306 303 301 301
240 242 234 226 229 234 238 238 232 226 218 226 254 262 265 265 258 253 251 249 249 249 249 251 252 254 254 256 259 262 264 268 272 278 284 287 288 289 291 293 294 297 299 300 302 308 315 318 320 321 321 320 320 318 317 315 313 310 308 304 301 299 297
234 236 225 216 220 216 217 224 225 225 220 217 248 269 271 268 260 252 250 251 252 252 251 251 252 252 253 255 258 262 265 269 274 279 284 286 289 292 293 292 293 295 296 297 300 309 317 321 322 321 319 317 316 314 314 314 314 312 307 303 300 297 296
226 219 216 213 214 208 206 215 222 225 221 211 232 271 279 275 266 257 254 254 254 253 251 250 251 252 254 257 259 263 266 270 275 280 285 290 293 293 290 289 293 297 297 295 297 306 316 320 318 319 322 322 319 314 310 311 315 314 310 306 302 298 295
225 216 226 220 213 214 211 211 222 226 216 212 231 257 275 280 274 262 256 256 253 254 253 253 256 258 260 261 263 266 269 274 278 282 288 293 292 290 289 293 300 302 299 297 300 311 322 324 322 325 330 331 328 321 314 312 313 313 313 312 311 307 300
242 234 242 235 223 224 222 211 210 218 215 218 233 251 259 265 270 270 265 264 262 261 262 264 267 268 267 267 268 269 272 276 279 283 287 289 288 289 293 298 302 304 305 306 310 320 329 329 328 330 331 331 331 327 321 316 314 314 316 316 317 316 310
257 253 251 250 238 232 232 221 209 210 215 219 225 239 252 258 265 271 270 271 272 270 273 278 279 278 277 276 273 272 275 276 278 283 285 286 288 290 294 297 300 304 309 313 319 325 329 327 327 330 330 330 330 327 323 319 318 318 319 318 319 319 315
254 254 254 265 253 233 228 225 218 213 211 220 225 231 249 259 262 265 268 275 279 279 283 288 288 286 283 280 278 275 276 277 280 283 284 286 289 290 295 299 300 303 307 313 320 325 328 327 327 330 330 327 325 324 321 319 318 318 317 318 319 318 315
245 252 257 269 260 237 227 228 233 227 213 218 227 229 241 254 261 263 263 269 277 284 292 294 294 292 286 282 280 279 279 281 282 283 284 287 291 294 299 302 298 300 306 312 319 324 327 329 329 330 327 323 321 320 320 317 314 312 312 313 314 314 313
237 250 256 260 255 240 234 235 239 238 224 218 225 229 237 248 257 260 260 265 274 281 289 295 297 295 290 285 283 283 283 284 282 282 285 289 292 297 301 299 295 301 308 313 319 323 326 327 328 327 325 323 321 319 318 315 312 310 310 310 311 311 311
225 235 244 248 248 245 242 239 240 242 236 227 230 236 239 242 249 255 259 265 270 274 282 291 297 297 294 288 283 284 283 281 281 282 286 290 292 296 297 292 293 303 309 312 317 322 324 325 326 326 325 325 324 321 317 315 313 312 312 312 312 311 309
223 227 237 243 247 249 245 241 241 242 239 235 234 239 240 237 241 248 255 262 266 270 276 285 292 297 296 288 281 280 279 278 280 281 285 289 291 293 292 289 294 304 309 311 315 318 321 323 324 325 325 323 324 324 320 317 316 315 313 313 313 311 308
222 227 236 242 246 246 242 241 241 236 236 239 237 237 239 237 237 242 250 258 263 267 271 277 286 293 292 283 276 275 276 275 277 279 283 288 289 289 289 289 294 302 308 310 314 316 318 321 321 323 323 322 323 324 321 318 317 315 314 313 312 310 308
223 231 238 240 238 238 236 237 238 232 231 237 238 239 241 240 241 243 247 253 259 263 266 272 282 287 283 275 271 269 269 270 272 275 279 281 283 285 288 292 296 302 309 313 315 316 318 319 320 321 321 321 320 320 319 319 316 313 313 313 310 308 306
226 233 238 235 231 232 234 234 234 229 227 231 236 240 242 243 244 245 247 252 255 259 264 269 278 282 275 267 267 262 259 263 265 267 271 273 275 281 289 297 303 307 312 315 314 314 316 318 318 319 318 317 317 317 316 318 317 314 313 312 309 307 305
231 231 234 234 231 230 229 230 232 230 228 232 237 240 241 243 245 244 246 251 253 257 263 267 274 277 271 262 262 258 254 257 258 258 261 262 266 278 291 299 305 308 311 312 312 312 314 315 316 316 314 313 314 314 313 314 316 315 313 311 309 307 304
234 233 235 235 235 234 230 228 232 235 238 240 241 241 241 241 242 243 243 247 252 257 262 265 269 272 269 259 256 253 249 250 251 251 253 258 267 280 291 300 305 308 309 310 312 313 313 314 314 312 312 313 314 313 311 311 313 313 309 308 308 306 303
234 234 238 237 236 237 235 231 232 236 241 244 244 242 241 240 240 240 241 246 252 257 261 264 266 267 265 258 251 248 246 247 249 250 256 268 278 283 290 298 304 306 308 309 311 313 312 312 311 310 311 314 315 314 313 311 310 310 307 305 305 304 300
243 236 236 238 238 236 232 229 231 235 239 244 244 241 240 241 239 238 242 246 250 255 259 261 261 260 260 256 249 245 246 250 252 257 268 279 284 288 293 299 303 305 306 307 309 309 309 308 308 310 312 313 313 314 314 312 308 305 304 304 304 302 298
245 239 233 234 239 241 236 230 231 236 239 241 241 239 239 241 239 237 240 243 246 250 255 257 255 253 253 250 246 248 254 258 261 267 277 285 289 293 298 301 302 302 303 305 305 304 304 306 308 310 312 311 311 312 312 310 305 303 303 304 303 299 294
238 240 237 235 240 247 249 243 237 238 242 241 239 238 238 239 239 238 239 243 246 248 252 253 249 244 246 248 249 255 261 266 270 276 282 288 291 293 296 297 298 299 300 302 303 304 307 309 309 309 309 309 310 310 310 307 303 302 305 305 300 294 290
238 243 247 248 249 251 252 250 246 242 241 240 238 237 237 238 239 239 239 242 245 247 248 248 244 243 248 253 257 262 266 269 274 278 283 287 288 289 291 292 293 296 298 300 303 306 307 307 305 305 305 306 307 308 307 305 304 304 305 303 297 292 289
239 245 249 250 252 251 247 246 247 242 236 235 236 235 236 238 240 239 239 241 244 246 246 246 247 250 255 259 262 264 266 269 274 278 280 282 283 285 286 287 290 292 295 298 301 302 302 301 301 301 302 304 306 306 305 304 305 305 304 300 296 293 291
241 245 247 247 248 247 242 239 241 240 233 231 233 233 235 239 241 240 239 241 244 246 246 247 250 254 257 261 263 263 265 269 273 275 277 278 279 279 280 283 287 290 293 296 297 296 297 299 300 302 305 307 308 306 304 304 304 303 301 298 294 293 292
244 244 245 244 244 244 240 237 237 237 233 231 231 233 236 241 242 240 239 241 244 245 246 248 250 253 256 260 262 264 267 269 270 273 275 276 274 274 276 281 285 289 291 292 292 294 297 300 302 305 308 309 309 308 305 303 301 300 297 295 294 294 293
245 244 243 243 241 239 238 236 234 233 234 233 233 235 238 240 241 240 239 241 243 245 248 249 251 254 257 260 263 265 266 267 269 272 273 271 269 271 275 282 286 287 288 289 291 293 296 299 302 305 307 308 309 309 306 301 298 296 294 294 295 296 295
241 240 241 240 236 234 236 237 233 230 232 232 233 236 238 238 240 241 239 240 242 245 248 250 252 255 258 260 260 261 263 264 266 268 269 269 270 273 277 283 287 287 286 287 290 292 294 298 302 304 306 306 308 309 307 303 298 294 293 293 294 295 293
237 233 235 236 234 233 234 236 231 226 228 229 230 234 236 237 240 241 237 237 241 244 247 249 252 255 257 258 259 261 264 264 265 268 272 273 275 276 277 281 285 286 285 286 289 291 293 298 302 304 305 305 306 308 308 304 299 294 293 293 293 292 291
232 227 229 233 233 232 232 231 225 221 223 225 227 231 233 235 237 237 235 236 240 243 247 250 253 255 257 260 263 268 270 270 271 273 275 275 276 276 275 278 283 285 285 286 287 290 293 297 301 303 304 304 305 307 307 303 298 294 294 295 295 292 289
231 227 228 228 226 225 225 224 221 219 220 221 223 226 229 231 233 234 234 235 239 243 248 251 253 255 258 262 266 269 270 271 272 274 275 276 277 277 278 282 283 283 284 286 287 290 293 296 299 300 301 302 303 304 304 302 298 297 299 300 298 293 289
229 224 226 225 223 223 220 217 216 215 216 217 219 222 226 229 230 232 233 235 239 243 247 249 251 255 259 263 265 267 267 269 271 272 273 274 275 277 281 284 282 280 283 287 288 290 293 295 297 298 299 300 301 302 303 302 301 301 303 303 300 293 288
230 223 221 222 223 222 217 212 211 211 212 215 217 220 223 226 229 232 233 235 239 242 245 248 251 254 258 261 264 265 267 268 268 269 270 273 276 280 283 282 280 281 285 288 289 291 293 295 296 298 298 299 300 301 302 302 301 302 304 303 298 291 286
231 225 222 223 225 223 215 210 209 209 210 213 216 218 222 225 228 232 234 235 238 242 245 248 250 253 257 261 264 266 268 268 268 271 274 277 280 282 281 279 281 285 287 289 289 290 292 294 296 297 297 298 300 301 302 301 301 302 304 302 296 291 288
229 228 227 226 229 230 223 216 213 211 210 212 215 218 222 226 229 231 234 236 240 243 245 247 250 253 257 261 263 266 267 268 271 276 279 278 277 278 279 281 283 286 287 289 289 290 292 294 295 296 297 298 300 301 301 301 301 302 305 304 299 294 290
228 230 228 224 228 234 232 224 218 213 210 212 216 219 222 227 230 233 235 238 240 242 245 247 251 255 258 261 264 267 269 272 278 281 280 276 274 276 279 282 284 286 288 289 290 291 293 294 295 296 297 298 299 300 300 302 302 303 305 306 304 299 292
228 228 227 224 229 234 229 220 214 210 208 211 215 218 222 226 230 232 235 237 239 242 245 249 253 256 259 262 266 270 273 278 280 279 277 275 275 276 279 282 285 288 290 291 292 292 293 294 295 296 298 298 299 300 301 301 303 304 305 304 302 299 295
224 225 226 225 227 225 216 208 205 206 209 212 215 219 223 226 229 232 235 237 240 243 246 249 252 256 259 262 265 269 273 276 276 275 276 277 276 277 279 282 285 288 290 291 292 293 293 294 296 297 298 299 299 299 300 301 302 303 303 302 298 294 293
217 222 225 223 217 209 203 201 201 204 209 214 217 221 225 227 230 232 235 237 240 243 245 248 251 253 257 260 264 268 271 273 274 275 277 278 278 278 281 283 286 290 292 292 293 294 295 296 297 298 298 298 297 298 299 300 301 301 302 299 294 290 291
Height
5889 5890 5892 5893 5895 5896 5898 5899 5899 5898 5897 5897 5898 5899 5901 5902 5903 5904 5905 5905 5905 5906 5906 5907 5907 5908 5908 5909 5909 5910 5910 5910 5910 5910 5911 5912 5912 5912 5912 5912 5912 5912 5912 5912 5911 5910 5909 5909 5908 5907 5906 5905 5905 5903 5902 5902 5901 5900 5899 5898 5897 5895 5894
5888 5888 5890 5892 5893 5894 5895 5897 5897 5896 5895 5895 5895 5897 5898 5900 5901 5901 5902 5902 5903 5904 5904 5905 5905 5906 5906 5907 5907 5908 5908 5908 5908 5908 5909 5910 5910 5910 5910 5910 5910 5910 5910 5910 5909 5908 5907 5907 5906 5905 5904 5903 5902 5901 5900 5899 5898 5897 5896 5895 5894 5893 5892
5885 5885 5888 5890 5890 5891 5893 5894 5896 5895 5893 5892 5894 5895 5897 5897 5898 5899 5899 5900 5901 5902 5902 5903 5903 5904 5904 5905 5906 5906 5906 5906 5906 5906 5907 5907 5907 5908 5908 5908 5908 5908 5908 5908 5907 5906 5905 5904 5903 5903 5901 5900 5899 5898 5897 5896 5896 5895 5893 5892 5891 5889 5888
5882 5884 5886 5888 5888 5889 5890 5892 5893 5893 5891 5891 5892 5894 5895 5896 5897 5897 5898 5898 5899 5900 5900 5900 5901 5901 5902 5903 5904 5904 5903 5903 5904 5904 5905 5906 5906 5906 5906 5906 5906 5906 5906 5906 5905 5904 5903 5902 5901 5900 5899 5898 5897 5896 5894 5894 5893 5892 5890 5889 5887 5886 5885
5879 5883 5884 5886 5886 5886 5887 5889 5890 5890 5890 5890 5891 5892 5894 5895 5895 5896 5897 5897 5898 5898 5898 5898 5899 5900 5901 5901 5902 5901 5901 5901 5902 5903 5903 5904 5904 5904 5904 5904 5904 5905 5904 5903 5903 5903 5901 5900 5899 5898 5897 5896 5895 5893 5892 5891 5890 5889 5887 5886 5884 5883 5882
5876 5881 5883 5884 5885 5884 5884 5886 5887 5888 5888 5889 5890 5891 5892 5893 5894 5895 5895 5896 5896 5897 5897 5897 5898 5899 5899 5899 5899 5899 5899 5900 5900 5901 5902 5902 5902 5902 5902 5903 5903 5903 5902 5902 5901 5900 5899 5898 5897 5896 5895 5894 5893 5891 5890 5888 5887 5886 5884 5883 5882 5880 5879
5874 5878 5881 5882 5883 5883 5883 5882 5883 5884 5886 5887 5888 5889 5891 5892 5893 5893 5894 5895 5895 5895 5896 5896 5897 5897 5897 5897 5897 5897 5897 5898 5899 5899 5900 5900 5900 5900 5900 5901 5901 5901 5900 5900 5899 5898 5897 5896 5895 5894 5893 5892 5890 5889 5888 5886 5885 5884 5882 5880 5879 5878 5877
5870 5874 5879 5879 5879 5880 5880 5880 5880 5880 5882 5884 5886 5888 5889 5890 5891 5892 5892 5893 5893 5894 5895 5895 5895 5895 5895 5895 5895 5895 5895 5896 5897 5897 5898 5898 5898 5898 5899 5899 5898 5898 5898 5898 5897 5896 5895 5894 5893 5892 5891 5890 5888 5887 5886 5884 5883 5881 5880 5878 5876 5875 5874
5867 5871 5876 5876 5875 5876 5878 5879 5878 5878 5879 5880 5883 5886 5887 5888 5889 5890 5890 5891 5891 5892 5893 5893 5894 5893 5893 5893 5893 5893 5894 5894 5895 5895 5896 5896 5896 5896 5897 5897 5896 5896 5896 5896 5895 5894 5893 5892 5891 5890 5889 5888 5886 5885 5884 5882 5881 5879 5878 5876 5874 5873 5871
5867 5870 5872 5871 5872 5874 5876 5877 5876 5876 5876 5878 5880 5883 5885 5886 5887 5887 5888 5889 5889 5890 5891 5891 5892 5891 5890 5890 5891 5891 5892 5892 5893 5893 5894 5894 5894 5894 5894 5894 5894 5893 5893 5893 5893 5892 5891 5890 5889 5888 5887 5885 5884 5883 5881 5880 5878 5876 5875 5874 5872 5870 5868
5866 5867 5867 5867 5868 5870 5872 5873 5873 5873 5873 5875 5878 5880 5882 5884 5884 5885 5886 5887 5887 5888 5889 5889 5889 5889 5889 5888 5889 5889 5890 5890 5891 5891 5892 5892 5892 5892 5892 5892 5892 5891 5890 5890 5890 5890 5889 5887 5887 5885 5884 5883 5882 5881 5879 5877 5876 5874 5872 5871 5869 5867 5865
5863 5863 5863 5864 5866 5867 5867 5869 5869 5870 5870 5872 5875 5877 5879 5881 5882 5882 5883 5884 5885 5886 5887 5887 5887 5887 5887 5886 5887 5888 5888 5888 5889 5889 5890 5890 5890 5890 5890 5890 5890 5889 5888 5886 5886 5887 5886 5885 5884 5883 5881 5880 5879 5877 5876 5874 5873 5870 5868 5867 5865 5863 5862
5859 5859 5860 5862 5864 5864 5864 5865 5866 5867 5868 5870 5872 5874 5875 5877 5879 5880 5880 5881 5882 5883 5884 5884 5884 5885 5885 5885 5885 5886 5886 5886 5887 5887 5888 5888 5887 5887 5887 5887 5887 5887 5886 5884 5883 5883 5884 5883 5881 5879 5878 5877 5875 5874 5873 5871 5869 5867 5864 5862 5861 5859 5858
5856 5857 5858 5860 5861 5861 5861 5863 5864 5865 5866 5867 5869 5870 5872 5874 5875 5876 5877 5878 5879 5880 5881 5882 5882 5883 5884 5883 5883 5884 5884 5884 5884 5885 5885 5885 5885 5885 5885 5885 5885 5885 5884 5883 5882 5880 5880 5880 5879 5877 5876 5874 5872 5871 5869 5867 5865 5863 5860 5858 5856 5855 5854
5852 5854 5855 5857 5859 5859 5859 5860 5861 5862 5863 5864 5865 5867 5868 5870 5872 5873 5874 5875 5876 5877 5878 5879 5879 5880 5881 5881 5881 5882 5882 5882 5882 5883 5883 5883 5883 5883 5882 5882 5882 5882 5882 5882 5880 5879 5878 5878 5877 5875 5873 5871 5870 5868 5866 5864 5862 5859 5857 5854 5852 5851 5850
5846 5848 5849 5851 5854 5855 5856 5857 5858 5859 5861 5861 5862 5863 5865 5867 5868 5870 5871 5872 5873 5874 5875 5876 5877 5877 5879 5879 5879 5879 5879 5879 5880 5881 5881 5881 5881 5880 5880 5880 5880 5879 5879 5879 5878 5876 5876 5875 5874 5873 5870 5868 5867 5865 5863 5861 5859 5857 5853 5850 5848 5847 5846
5843 5843 5843 5847 5850 5851 5852 5854 5855 5856 5858 5859 5859 5860 5862 5863 5865 5866 5867 5868 5870 5871 5872 5873 5875 5875 5876 5876 5876 5876 5877 5877 5878 5878 5878 5879 5879 5879 5878 5877 5877 5876 5876 5875 5874 5873 5872 5871 5870 5869 5867 5865 5863 5861 5859 5858 5856 5853 5849 5846 5844 5843 5842
5840 5840 5840 5843 5847 5847 5848 5850 5852 5853 5854 5855 5857 5857 5859 5860 5861 5862 5864 5865 5867 5868 5869 5870 5872 5872 5873 5873 5873 5873 5874 5875 5875 5876 5876 5876 5876 5876 5876 5875 5874 5873 5872 5871 5871 5869 5868 5867 5866 5865 5864 5863 5860 5857 5856 5854 5853 5849 5845 5843 5841 5839 5838
5835 5837 5837 5839 5841 5842 5844 5846 5847 5849 5850 5852 5854 5855 5856 5857 5858 5859 5861 5862 5864 5865 5865 5867 5869 5869 5869 5870 5870 5871 5872 5872 5872 5873 5873 5873 5874 5873 5873 5872 5871 5870 5868 5868 5867 5866 5864 5863 5861 5860 5860 5859 5857 5854 5852 5851 5849 5844 5840 5839 5838 5836 5834
5830 5831 5833 5835 5836 5837 5839 5843 5844 5845 5847 5849 5851 5852 5853 5854 5855 5856 5857 5858 5860 5861 5862 5863 5865 5866 5866 5867 5868 5869 5869 5869 5870 5870 5870 5870 5870 5870 5869 5869 5867 5866 5865 5864 5863 5861 5859 5858 5856 5856 5855 5854 5852 5850 5848 5847 5844 5839 5835 5835 5834 5832 5831
5825 5826 5829 5832 5833 5833 5835 5838 5841 5842 5844 5846 5847 5848 5850 5851 5851 5852 5854 5855 5856 5858 5859 5860 5862 5863 5864 5864 5865 5866 5866 5866 5866 5866 5866 5866 5866 5866 5866 5865 5864 5863 5862 5861 5860 5857 5855 5854 5852 5851 5850 5848 5847 5845 5843 5842 5839 5834 5831 5830 5828 5827 5826
5819 5821 5823 5826 5829 5830 5831 5833 5837 5840 5841 5841 5842 5844 5846 5847 5847 5848 5850 5851 5853 5854 5855 5857 5859 5860 5861 5861 5862 5863 5863 5863 5862 5863 5863 5863 5862 5862 5862 5861 5860 5859 5858 5857 5856 5854 5853 5851 5849 5847 5845 5843 5842 5840 5838 5837 5834 5830 5827 5825 5823 5822 5822
5814 5816 5817 5819 5822 5824 5826 5828 5831 5835 5836 5836 5838 5840 5842 5843 5843 5844 5846 5847 5849 5850 5852 5853 5855 5857 5857 5858 5858 5859 5859 5859 5859 5859 5859 5859 5859 5859 5858 5857 5857 5856 5854 5853 5852 5850 5849 5848 5846 5844 5841 5839 5837 5834 5832 5831 5829 5825 5822 5821 5820 5819 5818
5808 5809 5810 5812 5815 5817 5820 5822 5825 5828 5830 5831 5833 5835 5837 5838 5839 5840 5841 5843 5845 5847 5848 5850 5851 5852 5853 5853 5854 5855 5855 5855 5855 5855 5854 5855 5855 5854 5854 5853 5852 5851 5850 5849 5847 5845 5844 5843 5841 5839 5837 5835 5832 5829 5827 5826 5824 5821 5819 5818 5817 5815 5814
5801 5801 5802 5805 5808 5810 5813 5816 5818 5821 5824 5826 5827 5829 5832 5833 5834 5835 5836 5839 5841 5842 5844 5845 5847 5848 5849 5849 5849 5850 5851 5851 5851 5850 5850 5850 5850 5850 5850 5849 5848 5847 5846 5844 5842 5840 5839 5837 5836 5834 5832 5830 5827 5825 5823 5820 5818 5816 5815 5814 5812 5811 5809
5793 5793 5795 5799 5801 5803 5806 5809 5812 5815 5819 5821 5823 5824 5826 5828 5829 5830 5832 5834 5836 5838 5839 5841 5842 5844 5845 5845 5846 5847 5847 5846 5846 5845 5845 5845 5845 5845 5845 5845 5843 5842 5841 5839 5838 5836 5834 5832 5830 5829 5827 5825 5822 5820 5818 5816 5814 5813 5810 5809 5807 5806 5804
5786 5787 5789 5792 5793 5795 5799 5802 5806 5809 5812 5815 5817 5818 5820 5822 5823 5825 5827 5828 5830 5833 5834 5836 5838 5839 5840 5841 5842 5842 5841 5841 5841 5840 5840 5840 5839 5839 5839 5839 5838 5837 5836 5835 5833 5831 5829 5828 5826 5824 5822 5819 5817 5815 5813 5811 5810 5809 5807 5805 5804 5802 5799
5778 5780 5783 5784 5785 5788 5793 5797 5799 5802 5805 5807 5809 5811 5813 5816 5818 5819 5821 5823 5825 5828 5829 5831 5833 5834 5835 5836 5835 5835 5835 5836 5836 5835 5835 5834 5834 5833 5833 5833 5833 5832 5831 5830 5829 5827 5825 5824 5822 5820 5817 5814 5812 5810 5809 5807 5806 5804 5802 5801 5799 5797 5795
5772 5773 5775 5777 5780 5784 5788 5790 5792 5794 5796 5799 5801 5803 5806 5809 5811 5814 5816 5818 5820 5823 5824 5827 5828 5829 5829 5830 5830 5830 5830 5830 5830 5830 5830 5829 5829 5828 5828 5828 5828 5828 5827 5826 5824 5822 5821 5820 5818 5815 5813 5810 5807 5806 5806 5804 5802 5800 5798 5796 5794 5793 5791
5766 5768 5769 5771 5774 5777 5780 5782 5784 5786 5788 5791 5794 5796 5800 5803 5806 5808 5810 5813 5815 5818 5820 5822 5823 5824 5824 5825 5826 5826 5826 5826 5826 5826 5825 5825 5824 5823 5823 5823 5823 5823 5822 5821 5819 5818 5816 5815 5813 5811 5808 5805 5803 5802 5801 5800 5798 5796 5794 5792 5789 5787 5785
5760 5761 5763 5766 5769 5770 5771 5772 5774 5777 5780 5783 5786 5790 5794 5798 5800 5802 5805 5808 5811 5813 5815 5816 5817 5818 5819 5820 5821 5821 5821 5821 5821 5821 5820 5820 5819 5818 5818 5817 5818 5817 5816 5815 5814 5813 5811 5809 5807 5805 5803 5800 5798 5796 5794 5793 5791 5790 5788 5786 5782 5780 5778
5754 5755 5756 5758 5759 5759 5759 5761 5764 5768 5772 5776 5780 5784 5788 5791 5794 5798 5801 5804 5806 5807 5809 5811 5812 5814 5814 5815 5815 5815 5815 5816 5816 5816 5815 5814 5814 5814 5813 5812 5812 5812 5811 5810 5809 5807 5805 5803 5801 5799 5797 5795 5794 5791 5789 5787 5785 5784 5782 5780 5777 5774 5773
5749 5749 5749 5749 5750 5751 5752 5754 5757 5760 5764 5769 5773 5778 5782 5786 5790 5793 5795 5797 5799 5802 5804 5806 5807 5808 5809 5809 5810 5810 5810 5810 5810 5811 5811 5811 5810 5810 5809 5808 5807 5806 5806 5805 5803 5801 5799 5797 5795 5793 5791 5790 5788 5786 5784 5782 5780 5778 5777 5775 5772 5770 5769
5743 5744 5745 5746 5749 5753 5755 5755 5754 5754 5756 5760 5764 5769 5776 5781 5784 5787 5790 5792 5795 5797 5799 5800 5801 5802 5803 5804 5804 5804 5805 5805 5807 5808 5808 5806 5805 5804 5803 5803 5802 5801 5800 5799 5797 5795 5794 5792 5790 5788 5787 5785 5783 5781 5779 5777 5775 5774 5772 5770 5767 5766 5764
5739 5740 5742 5743 5746 5750 5754 5754 5752 5750 5750 5754 5759 5765 5772 5777 5780 5783 5786 5788 5790 5792 5793 5795 5796 5797 5797 5798 5799 5799 5799 5801 5802 5803 5801 5800 5799 5799 5798 5798 5797 5795 5794 5792 5791 5790 5788 5786 5785 5783 5782 5780 5778 5776 5774 5772 5770 5768 5767 5765 5763 5761 5759
5735 5736 5737 5740 5742 5744 5746 5747 5745 5745 5747 5752 5758 5764 5769 5773 5777 5779 5782 5783 5785 5787 5788 5789 5791 5791 5792 5793 5794 5794 5794 5796 5796 5795 5794 5794 5794 5793 5793 5792 5791 5789 5788 5786 5785 5784 5783 5781 5780 5778 5776 5774 5772 5770 5768 5767 5765 5763 5762 5760 5758 5757 5755
5729 5732 5734 5736 5738 5738 5738 5739 5740 5743 5748 5752 5757 5762 5766 5769 5773 5775 5777 5778 5780 5781 5783 5784 5785 5786 5786 5788 5789 5788 5789 5790 5790 5789 5789 5789 5788 5788 5787 5786 5785 5784 5782 5781 5779 5778 5776 5775 5774 5773 5771 5769 5767 5765 5764 5762 5760 5758 5757 5755 5753 5751 5750
5725 5728 5729 5730 5731 5730 5732 5735 5739 5743 5748 5752 5756 5759 5762 5765 5767 5769 5771 5773 5774 5775 5777 5777 5779 5780 5780 5782 5783 5783 5784 5785 5784 5783 5783 5783 5782 5782 5781 5780 5779 5778 5776 5775 5773 5772 5770 5769 5768 5767 5765 5763 5762 5760 5759 5757 5755 5753 5752 5750 5748 5746 5744